Precipitable_Water
0.53 0.49 0.45 0.43 0.39 0.35 0.32 0.29 0.26 0.21 0.21 0.22 0.22 0.24 0.23 0.23 0.23 0.24 0.23 0.22 0.24 0.26 0.27 0.28 0.28 0.29 0.30 0.30 0.31 0.32 0.34 0.35 0.37 0.38 0.39 0.40 0.39 0.40
0.50 0.46 0.44 0.40 0.36 0.33 0.30 0.29 0.27 0.23 0.20 0.22 0.21 0.22 0.24 0.24 0.23 0.24 0.23 0.25 0.25 0.25 0.26 0.27 0.28 0.29 0.31 0.32 0.34 0.36 0.37 0.38 0.39 0.41 0.43 0.43 0.44 0.44
0.48 0.46 0.41 0.37 0.32 0.30 0.28 0.26 0.25 0.24 0.20 0.21 0.23 0.24 0.23 0.22 0.23 0.24 0.26 0.24 0.24 0.24 0.25 0.27 0.30 0.32 0.34 0.35 0.36 0.37 0.38 0.38 0.40 0.41 0.42 0.44 0.44 0.45
0.47 0.42 0.37 0.33 0.30 0.28 0.26 0.25 0.24 0.24 0.22 0.20 0.22 0.21 0.22 0.24 0.24 0.26 0.26 0.25 0.22 0.24 0.27 0.30 0.32 0.33 0.33 0.35 0.35 0.36 0.37 0.38 0.39 0.40 0.40 0.40 0.42 0.42
0.44 0.38 0.33 0.29 0.26 0.26 0.25 0.24 0.24 0.25 0.23 0.20 0.18 0.21 0.22 0.25 0.26 0.27 0.22 0.22 0.24 0.27 0.29 0.31 0.31 0.31 0.33 0.34 0.34 0.35 0.36 0.37 0.37 0.38 0.38 0.38 0.38 0.39
0.38 0.33 0.29 0.28 0.26 0.25 0.24 0.24 0.24 0.22 0.21 0.20 0.19 0.20 0.23 0.26 0.25 0.20 0.19 0.23 0.26 0.29 0.31 0.31 0.31 0.31 0.32 0.31 0.33 0.35 0.36 0.37 0.37 0.37 0.37 0.38 0.38 0.38
0.31 0.29 0.28 0.27 0.27 0.27 0.26 0.24 0.23 0.21 0.21 0.20 0.21 0.22 0.22 0.20 0.18 0.20 0.22 0.26 0.28 0.32 0.29 0.28 0.30 0.30 0.30 0.31 0.33 0.34 0.36 0.37 0.37 0.39 0.39 0.40 0.40 0.41
0.27 0.27 0.26 0.26 0.25 0.24 0.24 0.25 0.24 0.22 0.22 0.23 0.22 0.20 0.20 0.19 0.21 0.23 0.25 0.27 0.25 0.30 0.28 0.25 0.29 0.28 0.29 0.32 0.34 0.36 0.38 0.38 0.39 0.40 0.41 0.42 0.43 0.43
0.27 0.26 0.25 0.23 0.23 0.22 0.23 0.23 0.24 0.24 0.25 0.24 0.21 0.20 0.19 0.22 0.25 0.27 0.30 0.29 0.26 0.28 0.28 0.24 0.29 0.26 0.28 0.31 0.35 0.38 0.37 0.38 0.41 0.43 0.44 0.44 0.45 0.45
0.26 0.24 0.22 0.21 0.22 0.22 0.22 0.23 0.23 0.24 0.23 0.22 0.22 0.22 0.25 0.30 0.34 0.34 0.31 0.29 0.28 0.28 0.29 0.24 0.27 0.25 0.28 0.31 0.35 0.37 0.37 0.39 0.40 0.41 0.42 0.44 0.46 0.47
0.23 0.21 0.21 0.21 0.21 0.23 0.23 0.22 0.22 0.20 0.21 0.21 0.25 0.30 0.34 0.34 0.32 0.31 0.27 0.25 0.23 0.23 0.28 0.26 0.26 0.26 0.27 0.29 0.34 0.36 0.36 0.38 0.40 0.41 0.42 0.45 0.46 0.47
0.20 0.20 0.20 0.21 0.23 0.24 0.23 0.23 0.18 0.18 0.20 0.26 0.30 0.30 0.30 0.29 0.30 0.30 0.28 0.25 0.24 0.21 0.27 0.25 0.25 0.26 0.21 0.28 0.32 0.34 0.35 0.37 0.38 0.40 0.43 0.46 0.47 0.47
0.19 0.19 0.19 0.21 0.23 0.24 0.23 0.20 0.19 0.23 0.28 0.29 0.27 0.27 0.28 0.28 0.29 0.30 0.31 0.29 0.25 0.24 0.28 0.28 0.25 0.25 0.25 0.25 0.30 0.33 0.34 0.35 0.37 0.40 0.44 0.46 0.48 0.47
0.19 0.20 0.21 0.22 0.23 0.22 0.20 0.20 0.24 0.28 0.27 0.26 0.26 0.26 0.26 0.28 0.30 0.31 0.32 0.31 0.31 0.30 0.31 0.31 0.26 0.26 0.24 0.25 0.27 0.31 0.33 0.36 0.39 0.41 0.43 0.46 0.48 0.48
0.21 0.22 0.22 0.21 0.20 0.19 0.20 0.24 0.27 0.25 0.25 0.24 0.25 0.26 0.28 0.29 0.30 0.30 0.31 0.31 0.32 0.32 0.32 0.32 0.30 0.29 0.28 0.27 0.29 0.31 0.31 0.35 0.40 0.41 0.44 0.44 0.43 0.44
0.21 0.21 0.19 0.18 0.19 0.21 0.23 0.24 0.25 0.25 0.26 0.26 0.26 0.27 0.29 0.29 0.28 0.30 0.28 0.29 0.28 0.28 0.32 0.32 0.32 0.31 0.28 0.31 0.34 0.31 0.34 0.33 0.38 0.42 0.43 0.43 0.43 0.43
0.20 0.17 0.15 0.18 0.19 0.21 0.23 0.24 0.25 0.26 0.26 0.28 0.28 0.28 0.28 0.29 0.29 0.30 0.29 0.29 0.27 0.26 0.27 0.30 0.32 0.32 0.33 0.35 0.32 0.33 0.34 0.35 0.40 0.40 0.41 0.39 0.40 0.40
0.16 0.15 0.17 0.19 0.21 0.22 0.23 0.24 0.26 0.27 0.28 0.29 0.29 0.28 0.28 0.28 0.28 0.29 0.30 0.28 0.27 0.27 0.27 0.28 0.29 0.28 0.31 0.35 0.35 0.33 0.34 0.35 0.39 0.40 0.42 0.38 0.36 0.40
0.14 0.18 0.19 0.21 0.22 0.23 0.24 0.25 0.26 0.28 0.30 0.30 0.29 0.29 0.29 0.29 0.28 0.28 0.28 0.28 0.27 0.27 0.27 0.28 0.28 0.28 0.28 0.26 0.31 0.37 0.34 0.36 0.38 0.39 0.40 0.39 0.37 0.39
0.18 0.19 0.21 0.23 0.24 0.25 0.26 0.27 0.28 0.29 0.30 0.30 0.30 0.30 0.30 0.29 0.28 0.28 0.28 0.27 0.26 0.27 0.27 0.28 0.29 0.31 0.31 0.29 0.30 0.33 0.39 0.38 0.38 0.37 0.38 0.41 0.43 0.46
0.20 0.22 0.24 0.25 0.25 0.27 0.27 0.28 0.29 0.29 0.30 0.30 0.30 0.30 0.30 0.30 0.29 0.29 0.29 0.28 0.28 0.27 0.25 0.26 0.32 0.37 0.37 0.37 0.32 0.33 0.36 0.41 0.43 0.40 0.40 0.39 0.38 0.37
0.23 0.24 0.25 0.26 0.27 0.28 0.28 0.29 0.30 0.30 0.30 0.31 0.31 0.31 0.31 0.31 0.29 0.29 0.30 0.28 0.28 0.28 0.28 0.32 0.34 0.36 0.36 0.34 0.32 0.34 0.36 0.40 0.43 0.44 0.45 0.44 0.40 0.33
0.25 0.26 0.26 0.27 0.28 0.29 0.29 0.30 0.30 0.30 0.31 0.32 0.31 0.31 0.31 0.30 0.31 0.31 0.31 0.30 0.29 0.29 0.29 0.30 0.33 0.36 0.35 0.35 0.35 0.36 0.37 0.37 0.39 0.38 0.41 0.47 0.49 0.48
Wind_Speed
33 35 36 38 39 40 42 43 45 46 47 46 47 48 53 55 56 58 61 63 63 65 66 67 66 66 64 61 58 56 55 54 54 54 55 56 58 61
35 37 38 40 41 42 43 44 45 47 50 50 52 54 55 57 59 61 63 64 65 66 66 64 62 59 55 51 48 47 47 46 46 46 47 48 49 51
37 39 40 42 42 44 44 45 47 48 52 53 54 56 57 60 61 62 63 65 64 62 60 56 53 49 47 45 44 41 41 40 41 41 42 43 44 45
39 40 42 43 44 44 45 47 49 51 53 56 56 58 60 60 62 63 63 62 60 54 50 47 44 43 42 40 40 40 39 39 40 41 43 44 45 45
40 42 43 44 45 46 47 49 51 53 54 57 59 60 61 62 63 61 61 55 50 47 43 41 41 40 37 37 37 37 37 38 40 41 42 42 43 45
41 42 43 44 46 47 49 51 52 54 56 58 60 62 62 61 60 59 52 47 41 40 40 39 38 36 36 36 35 35 36 37 37 37 37 39 40 41
42 43 44 46 48 49 50 52 54 56 58 59 61 61 60 58 54 50 45 40 38 37 39 35 32 34 33 33 33 34 33 33 33 34 35 35 35 36
42 43 45 47 48 50 52 54 56 58 59 60 60 59 57 52 47 41 38 36 33 35 33 33 32 32 31 31 32 33 31 30 30 31 32 31 31 32
43 45 46 47 50 51 53 55 57 59 59 59 57 52 49 43 40 36 34 33 35 35 33 32 32 32 31 31 31 30 28 28 27 28 29 30 31 33
44 45 47 49 50 53 55 56 57 57 55 52 49 44 39 36 34 33 35 35 34 33 32 32 33 33 31 31 31 27 26 25 26 29 32 34 35 36
44 46 48 50 52 54 56 57 56 53 49 44 39 37 35 34 34 33 33 33 32 32 33 34 32 33 33 32 26 25 25 28 29 31 32 35 36 36
45 47 50 52 53 55 56 55 52 46 40 36 34 34 32 33 33 33 33 33 33 32 31 31 33 33 28 28 25 27 25 28 30 32 34 36 35 32
47 49 51 53 55 55 53 49 43 38 35 33 33 32 33 33 33 32 33 33 33 33 34 33 31 32 29 29 28 27 27 28 30 32 34 33 32 31
49 51 52 54 54 50 45 38 35 33 32 32 33 33 34 33 33 33 34 34 33 34 33 32 30 30 30 29 27 26 27 28 29 31 31 30 31 29
50 52 53 52 47 40 34 32 31 30 31 32 33 33 33 34 34 33 32 31 30 30 30 29 29 29 28 27 26 25 26 27 28 29 29 29 29 29
51 51 49 42 35 31 29 29 29 30 31 31 31 32 32 31 30 29 28 27 27 27 27 28 27 27 26 25 24 24 24 25 28 28 28 27 28 28
50 45 37 30 27 27 28 28 29 29 30 30 30 31 30 29 27 27 26 25 25 26 26 27 26 25 24 23 23 21 23 25 27 28 27 26 27 27
41 33 26 24 25 26 27 28 29 29 29 30 30 29 28 28 27 26 25 25 25 25 26 27 26 23 20 19 19 19 22 25 26 26 25 24 25 26
28 23 21 22 24 25 26 28 29 29 30 30 29 28 28 27 27 25 25 24 25 25 25 26 23 20 19 19 19 17 22 23 24 23 23 22 23 25
19 19 20 21 23 25 27 28 29 29 29 29 29 28 28 26 26 25 25 25 25 25 24 23 20 18 18 19 19 21 20 21 22 22 21 21 22 22
16 17 19 20 22 25 27 29 29 30 30 30 29 28 27 27 25 25 24 25 24 22 21 20 19 20 19 18 17 19 18 20 20 19 19 18 18 20
15 16 18 20 23 25 27 29 31 31 31 30 29 27 28 27 25 24 23 22 21 20 19 19 18 17 16 16 17 17 17 18 18 17 17 16 17 16
14 16 18 21 23 25 27 29 31 31 31 30 29 29 28 25 24 22 21 19 18 17 17 17 16 16 15 15 17 16 17 16 16 16 16 16 15 16
Wind_Direction
298 299 301 301 302 301 301 301 302 302 302 303 302 301 301 300 300 300 300 300 299 298 298 296 295 294 292 290 288 286 284 281 279 277 274 272 270 266
299 300 301 302 302 302 302 302 301 301 301 303 303 303 302 302 302 302 301 301 301 300 299 297 296 295 293 291 288 286 285 283 281 279 277 275 272 269
300 301 302 303 303 303 303 302 302 302 302 303 303 304 303 303 303 303 302 302 302 301 299 298 297 295 293 291 289 287 285 284 283 281 279 277 274 272
301 302 303 303 303 303 303 303 303 303 303 303 304 304 304 304 304 304 304 303 302 301 300 298 297 296 294 292 290 288 286 285 284 283 281 279 276 273
302 303 303 304 304 304 304 304 304 304 304 304 305 305 305 305 305 304 305 303 302 300 299 299 298 297 294 293 292 290 288 288 287 286 284 281 278 275
303 303 304 304 305 305 305 305 305 305 305 305 305 306 306 306 305 305 304 303 302 301 300 300 298 296 296 295 294 293 291 291 290 290 288 286 282 277
303 304 305 305 305 305 306 306 306 306 306 306 306 306 307 307 306 305 303 302 302 302 302 302 299 299 299 297 296 295 295 293 293 293 293 290 286 282
305 305 306 306 307 307 307 307 307 308 307 307 307 307 306 306 305 304 303 303 303 306 304 303 302 301 300 300 299 298 296 294 295 296 297 294 291 287
306 307 308 308 308 308 308 308 309 309 308 307 307 307 306 305 304 303 302 302 304 305 302 302 304 302 301 301 301 298 296 296 296 299 299 297 296 292
307 308 309 309 309 309 309 310 310 310 309 308 307 307 306 306 304 302 303 302 303 303 302 300 304 302 301 301 300 295 297 297 298 300 300 300 299 295
309 310 310 310 310 311 311 311 312 311 310 309 308 307 307 306 305 304 304 304 304 304 303 302 303 303 302 299 295 295 296 299 300 302 303 303 302 298
311 311 311 312 312 312 312 312 312 312 311 311 310 309 308 307 307 305 305 304 304 304 305 303 303 304 303 298 292 295 295 299 302 304 306 307 305 300
312 313 313 313 313 313 313 312 311 311 311 311 310 310 309 308 307 306 305 303 303 302 305 304 303 302 298 298 294 293 296 300 304 306 308 309 308 303
313 314 314 314 314 314 313 313 312 313 313 312 312 311 310 309 308 307 306 304 302 301 305 303 301 302 300 297 294 294 298 302 306 308 310 310 310 307
314 315 314 314 315 315 315 315 315 315 315 314 313 313 312 310 309 308 307 306 306 306 307 306 302 302 299 296 295 294 298 304 308 311 311 312 313 311
316 316 316 316 317 317 318 319 318 318 317 317 317 316 316 316 315 313 312 310 310 312 313 312 309 306 301 296 295 293 299 303 310 312 312 312 315 314
317 317 318 319 321 322 322 322 322 322 321 320 320 320 320 320 319 319 316 314 312 314 316 318 315 310 302 298 297 294 301 308 312 313 314 314 317 320
318 318 321 323 325 327 327 327 326 324 323 322 321 321 321 321 320 320 319 318 316 317 318 319 320 316 311 307 301 300 307 312 314 316 315 315 319 326
320 322 325 328 330 332 332 331 329 327 325 324 323 323 322 320 320 320 321 320 320 320 321 321 321 319 317 315 315 312 314 316 318 319 318 318 320 327
324 327 330 333 336 337 337 336 334 332 329 327 326 324 323 321 320 319 319 319 320 321 323 324 324 322 319 317 316 318 321 321 324 323 324 325 325 329
329 333 336 338 340 340 341 340 339 337 334 331 328 325 325 323 320 319 320 321 322 324 325 327 326 323 322 321 320 323 326 328 328 329 332 335 338 341
333 337 340 341 342 343 343 344 342 341 339 336 333 330 327 325 322 320 320 321 324 326 327 329 331 332 332 331 329 329 331 334 336 337 338 339 342 346
337 340 342 343 344 345 346 345 345 344 344 342 339 336 333 330 327 323 321 321 324 328 333 336 340 342 343 343 340 339 337 340 344 347 350 352 352 350